{"data":{"norad_id":47269,"intl_designator":"2020-100M","name":"ONEWEB-0123","alt_names":[],"object_type":"PAYLOAD","status":"ACTIVE","operator":null,"country":"UK","launch_date":"2020-12-18","launch_site_code":"VOSTO","launch_vehicle":null,"mission":null,"orbit_class":"UNKNOWN","rcs_meters":null,"size_class":null,"mass_kg":null,"dimensions":null,"purposes":["comms"],"wikipedia_slug":null,"has_3d_model":false,"image_url":null,"decayed_at":null,"tle_current":{"epoch":"2026-09-19T23:16:14.506176Z","epoch_age_seconds":60338,"freshness":"FRESH","line1":"1 47269U 20100M   26262.96961234  .00000102  00000+0  24812-3 0  9991","line2":"2 47269  87.8983 331.8465 0001900 101.0525 259.0818 13.12441981277123","mean_motion":13.12441981,"eccentricity":0.00019,"inclination_deg":87.8983,"raan_deg":331.8465,"arg_perigee_deg":101.0525,"mean_anomaly_deg":259.0818,"bstar":0.00024812,"rev_number":27712,"period_min":109.71913584346,"perigee_km":1212.2847664695,"apogee_km":1215.1696748734,"semimajor_km":7591.8642206714,"source":"CELESTRAK","updated_at":"2026-09-20T09:00:44.578070Z"}}}